#timestamp,LO_Frequency,Hit,StdDev 
1524312015.7,286046999.1,N
1524312035.5,286046998.9,N
1524312055.4,286047001.0,N
1524312075.2,286046999.5,N
1524312095.0,286046997.2,N
1524312095.9,286046997.2,N
1524312115.8,286046999.2,N
1524312135.6,286047001.2,N
1524312155.5,286046999.9,N
1524312175.3,286047000.4,N
1524312195.1,286047000.3,N
1524312215.9,286047000.9,N
1524312235.7,286047001.0,N
1524312255.5,286046999.3,N
1524312275.4,286046998.9,N
1524312295.2,286046998.3,N
1524312315.1,286047000.7,N
1524312316.0,286047000.7,N
1524312335.8,286047000.5,N
1524312355.6,286047000.8,N
1524312375.5,286047001.0,N
1524312395.3,286047001.2,N
1524312415.1,286046999.4,N
1524312435.9,286046998.2,N
1524312455.7,286046998.9,N
1524312475.6,286046999.1,N
1524312495.4,286046998.3,N
1524312545.3,286047000.8,E
1524312555.2,286046998.4,N
1524312575.0,286046996.9,P
1524312575.9,286046996.9,P
1524312595.8,286046998.9,N
1524312615.6,286046999.6,N
1524312635.4,286046997.2,N
1524312655.3,286046997.2,N
1524312675.1,286046997.7,N
1524312695.8,286046997.6,N
1524312715.7,286046998.0,N
1524312735.5,286046995.4,Y
1524312755.4,286046996.8,P
1524312775.2,286046997.1,P
1524312795.0,286046999.4,N
1524312795.9,286046999.4,N
1524312815.8,286046999.4,N
1524312835.6,286046998.7,N
1524312855.5,286046996.7,Y
1524312875.3,286046996.5,P
1524312895.1,286046999.6,N
1524312915.9,286046996.9,N
1524312935.7,286046997.0,N
1524312955.5,286046996.7,N
1524312975.4,286046999.0,N
1524312995.2,286046999.2,N
1524313015.1,286046997.2,N
1524313016.0,286046997.2,N
1524313035.8,286046996.9,N
1524313055.6,286046998.8,N
1524313075.5,286046999.1,N
1524313095.3,286046997.2,N
1524313115.1,286046997.0,N
1524313135.9,286046994.9,Y
1524313155.7,286046998.7,P
1524313175.6,286046998.3,P
1524313195.4,286046998.3,P
1524313215.2,286046998.5,Y
1524313235.1,286047000.4,P
1524313236.0,286047000.4,N
1524313255.8,286046998.5,N
1524313275.7,286046998.2,N
1524313295.5,286046998.8,N
1524313315.3,286046999.4,N
1524313335.2,286046998.4,N
1524313355.9,286046998.7,N
1524313375.7,286046999.1,N
1524313395.6,286046998.2,N
1524313415.4,286046998.4,N
1524313435.3,286046998.3,N
1524313455.1,286046998.3,N
1524313456.0,286046998.3,N
1524313475.8,286046998.7,N
1524313495.7,286046998.8,N
1524313515.5,286046998.6,N
1524313535.3,286046999.0,N
1524313555.2,286046999.0,N
1524313575.0,286046999.3,N
1524313575.9,286046999.3,N
1524313595.8,286046998.1,Y
1524313615.6,286046999.8,P
1524313635.4,286047000.1,N
1524313655.3,286047002.4,P
1524313675.1,286047000.1,N
1524313695.8,286047000.2,N
1524313715.7,286047000.8,N
1524313735.5,286046998.4,N
1524313755.4,286046999.0,N
1524313775.2,286046998.4,N
1524313795.0,286046996.5,Y
1524313826.0,286046999.6,E
1524313835.9,286046999.1,N
1524313855.7,286046999.1,P
1524313875.6,286046998.5,P
1524313895.4,286046998.1,Y
1524313915.2,286047000.8,P
1524313935.1,286047002.7,N
1524313936.0,286047002.7,N
1524313955.8,286047001.6,N
1524313975.7,286047002.0,N
1524313995.5,286047001.9,N
1524314015.3,286047002.7,N
1524314035.2,286047000.0,N
1524314055.0,286047000.5,N
1524314055.9,286047000.5,N
1524314075.8,286046999.7,N
1524314095.6,286047000.3,N
1524314115.4,286047002.3,N
1524314135.3,286047002.4,N
1524314155.1,286047000.0,N
1524314175.8,286047002.8,N
1524314195.7,286047000.0,N
1524314215.5,286047001.0,N
1524314235.4,286047000.2,N
1524314255.2,286047000.5,N
1524314275.0,286046999.9,N
1524314275.9,286046999.9,N
1524314295.8,286047000.6,N
1524314315.6,286047000.8,N
1524314335.4,286047000.4,N
1524314355.3,286046998.7,N
1524314375.1,286046998.6,N
1524314395.9,286046998.4,N
1524314415.7,286046998.7,N
1524314435.5,286046999.4,N
1524314455.4,286046998.9,N
1524314475.2,286046998.8,N
1524314495.1,286047001.1,N
1524314496.0,286047001.1,N
1524314515.8,286047001.0,N
1524314535.6,286046998.1,N
1524314555.5,286047000.7,N
1524314575.3,286047000.7,N
1524314595.1,286047000.3,N
1524314615.9,286047001.0,N
1524314635.7,286047000.8,N
1524314655.6,286046999.9,N
1524314675.4,286047000.1,N
1524314695.2,286047002.3,N
1524314715.1,286047001.7,N
1524314716.0,286047001.7,N
1524314735.8,286047001.8,N
1524314755.7,286047004.4,Y
1524314775.5,286047001.8,P
1524314795.3,286047002.1,N
1524314815.2,286047001.6,N
1524314835.0,286046999.8,N
1524314835.9,286046999.8,N
1524314855.7,286047002.6,N
1524314875.6,286047002.6,N
1524314895.4,286047001.6,N
1524314915.3,286047002.1,N
1524314935.1,286047001.4,N
1524314936.0,286047001.4,N
1524314955.8,286047001.3,N
1524314975.7,286047003.1,Y
1524314995.5,286046999.8,P
1524315015.4,286047002.6,P
1524315035.2,286047001.6,N
1524315055.0,286046999.9,N
1524315055.9,286046999.9,N
1524315075.8,286046999.9,N
1524315095.6,286046998.6,N
1524315115.4,286046998.8,N
1524315135.3,286046999.3,N
1524315155.1,286047000.1,N
1524315175.9,286047000.6,N
1524315195.7,286047001.0,N
1524315215.5,286046998.3,N
1524315235.4,286046999.0,N
1524315255.2,286046998.1,N
1524315275.0,286047000.5,N
1524315276.0,286047000.5,N
1524315295.8,286047000.0,N
1524315315.6,286046998.4,N
1524315335.5,286046998.2,N
1524315355.3,286047001.1,N
1524315375.2,286047000.9,N
1524315395.9,286047000.0,N
1524315415.7,286047000.7,N
1524315435.6,286046999.7,N
1524315455.4,286047000.0,N
1524315475.2,286047000.2,N
1524315495.1,286047001.6,N
1524315496.0,286047001.6,N
1524315515.8,286047001.6,N
1524315535.7,286047001.9,N
1524315555.5,286047001.5,N
1524315575.3,286047000.1,N
1524315595.2,286047000.6,N
